Regional Weather Roundup
Issued by NWS Portland, ME

Home | Current Version | Previous Version | Text Only | Print | Product List | Glossary On
Versions: 1 2 3 4 5 6 7 8 9 10 11 12 13 14 15 16 17 18 19 20 21 22 23 24 25 26 27 28 29 30 31 32 33 34 35 36 37 38 39 40 41 42 43 44 45 46 47 48 49 50
000
ASUS41 KGYX 250210
RWRGYX
WEATHER ROUNDUP FOR MAINE AND NEW HAMPSHIRE
NATIONAL WEATHER SERVICE GRAY ME
1000 PM EDT THU JUL 24 2014

MEZ002-005-006-010-012-015-018-020-021-024-026-027-029-250300-
MAINE

CITY           SKY/WX    TMP DP  RH WIND       PRES   REMARKS
PORTLAND       PTCLDY    63  58  83 CALM      29.88R
SANFORD        CLEAR     63  57  82 CALM      29.88R
BAR HARBOR     PTCLDY    61  61 100 CALM      29.85R
WISCASSET      CLEAR     60  58  92 CALM      29.89R
ROCKLAND       PTCLDY    61  57  88 CALM      29.85R
FRYEBURG       CLEAR     56  53  90 W5        29.90R
LEWISTONAUBURN CLEAR     64  52  63 NW5       29.88S
AUGUSTA        CLEAR     63  51  65 NW6       29.88R
WATERVILLE     CLEAR     63  52  67 NW5       29.83S
BANGOR         PTCLDY    65  52  62 NW6       29.85R
GREENVILLE       N/A     57  48  72 VRB3      29.88R
MILLINOCKET    CLEAR     63  51  65 NW3       29.86R
HOULTON        CLEAR     54  52  93 CALM      29.83R
PRESQUE ISLE   CLEAR     54  48  82 CALM      29.83S
FRENCHVILLE    CLEAR     61  41  47 W3        29.82S
CARIBOU        CLEAR     58  50  75 CALM      29.82R
$$

NHZ002-005-008-009-011-012-014-250300-
NEW HAMPSHIRE

CITY           SKY/WX    TMP DP  RH WIND       PRES   REMARKS
PORTSMOUTH     MOCLDY    64  61  87 VRB2      29.87R
ROCHESTER      PTCLDY    65  59  81 CALM      29.87R
NASHUA         PTCLDY    69  56  63 CALM      29.90R
MANCHESTER     PTCLDY    70  54  56 NW8       29.87R
CONCORD        CLEAR     64  54  69 NW5       29.89R
LACONIA        CLEAR     64  50  59 SW3       29.90R
PLYMOUTH       FAIR      59  52  76 W5        29.91R
BERLIN         CLEAR     52  50  93 CALM      29.93R
WHITEFIELD     CLEAR     54  50  86 CALM      29.94R
JAFFREY        PTCLDY    59  57  93 CALM      29.93R
LEBANON        CLEAR     56  51  84 CALM      29.92R
MT WASHINGTON  PTCLDY    39  32  75 NW26        N/A
$$

VTZ005-007-008-250300-
VERMONT

CITY           SKY/WX    TMP DP  RH WIND       PRES   REMARKS
ST JOHNSBURY     N/A     57  52  83 MISG      29.92R
MONTPELIER     CLEAR     52  49  89 CALM      29.98S
BURLINGTON     CLEAR     61  52  72 CALM      29.93R
$$

MAZ007-012-024-CTZ003-RIZ002-NYZ038-NYZ072-250300-
SOUTHERN NEW ENGLAND AND NY

CITY           SKY/WX    TMP DP  RH WIND       PRES   REMARKS
BOSTON         PTCLDY    64  61  90 CALM      29.89R
WORCESTER      CLOUDY    68  53  58 N8        29.92R
NANTUCKET      CLOUDY    65  63  93 NE6       29.88R
PROVIDENCE     MOCLDY    69  60  73 NE3       29.89R
HARTFORD       MOCLDY    68  55  63 N6        29.88R
ALBANY         PTCLDY    69  51  52 NW9       29.92R
NEW YORK CITY  MOCLDY    76  56  49 N9        29.88R
$$

ANZ081-ANZ082-ANZ150-NHZ014-MEZ023>029-250300-
COASTAL MARINE OBSERVATIONS

STATION/POSITION TIME  TEMP    WIND        PRES    WAVE
                       AIR SEA DIR/SP/G            HT/PER
                 (UTC) (F)     (DEG/KT/KT) (MB)    (FT/S)
MOUNT DESERT ROC 0200   57                 1010.5R
MATINICUS ROCK   0100          260/  8/  8 1010.2R
PORTLAND WX BUOY 0200   65 64  240/  2/  4 1011.4R   1/ 8
WELLS            0200   64 58   70/  3/  4 1010.8S
ISLE OF SHOALS   0100   64     230/  5/  5 1010.9R
JEFFREYS LEDGE   0200      65                N/A     2/ 8
CASHES LEDGE BUO 0200   64 65  VRB  6/  6  1010.5R   2/11
$$

.............KEY..............
   WCI - WIND CHILL
   TC  - TEMPERATURE IN CELSIUS
   VSB - VISIBILITY IN MILES
   HX  - HEAT INDEX
   FAIR- INDICATES FEW OR NO CLOUDS BELOW 12,000 FT, WITH NO
         SIGNIFICANT WEATHER AND/OR OBSTRUCTIONS TO VISIBILITY.




USA.gov is the U.S. government's official web portal to all federal, state and local government web resources and services.